7 * 24
多渠道服务支持
IRIDIUM 114 是美国 IRIDIUM 卫星通信公司运营的低轨卫星通信系统中的一颗卫星。该系统由 66 颗工作卫星组成,提供全球范围的语音和数据通信服务,广泛应用于航空、航海、军事和偏远地区通信。IRIDIUM 114 于 1997 年发射,是第一代 IRIDIUM 卫星之一,采用星间链路技术,实现全球无缝覆盖。尽管第一代卫星已于 2009 年退役,但 IRIDIUM 系统仍在持续升级,第二代和第三代卫星提供更高速、更可靠的服务。
美国
(US)
| 数据来源 | 国际轨道数据 |
| 星历时间: | 2025-10-28T23:42:10+0800 16小时前 查看轨道信息 |
| 半长轴: | 7155.801km |
| 偏心率: | 0.0002213 |
| 轨道倾角: | 86.403° |
| 近地点辐角 | 80.367° |
| 升交点赤经 | 185.179° |
| 平近点角 | 279.778° |
| 近地点: | 776.082km |
| 远地点: | 779.25km |
| 周期: | 100.403分钟 |
| 每日圈数: | 14.342188 |